Regional Weather Roundup
Issued by NWS

Home | Current Version | Previous Version | Text Only | Print | Product List | Glossary On
Versions: 1 2 3 4 5 6 7 8 9 10 11 12 13 14 15 16 17 18 19 20 21 22 23 24 25 26 27 28 29 30 31 32 33 34 35 36 37 38 39 40 41 42 43 44 45 46 47 48 49 50
000
ASUS46 KPQR 280010
RWROR

OREGON REGIONAL WEATHER ROUNDUP
NATIONAL WEATHER SERVICE PORTLAND OR
400 PM PST FRI FEB 27 2015

NOTE: "FAIR" INDICATES FEW OR NO CLOUDS BELOW 12,000 FEET WITH
NO SIGNIFICANT WEATHER AND/OR OBSTRUCTIONS TO VISIBILITY.

ORZ001>013-280100-
NORTHWEST OREGON


CITY           SKY/WX    TMP DP  RH WIND       PRES   REMARKS
ASTORIA        PTSUNNY   50  46  86 N6        29.71S
6HR MIN TEMP:  49; 6HR MAX TEMP:  53; 6HR PCP:  0.14;

NEWPORT        DRIZZLE   48  46  93 S3        29.73F
PORTLAND       PTSUNNY   51  43  74 E16       29.72R
6HR MIN TEMP:  49; 6HR MAX TEMP:  57; 6HR PCP: TRACE;

VANCOUVER WA   CLOUDY    51  41  68 E13       29.72R
6HR MIN TEMP:  50; 6HR MAX TEMP:  56;

SCAPPOOSE      PTSUNNY   52  44  74 E12       29.71R
6HR MIN TEMP:  49; 6HR MAX TEMP:  54; 6HR PCP:  0.01;

HILLSBORO      CLOUDY    53  42  66 E10       29.70R
6HR MIN TEMP:  49; 6HR MAX TEMP:  56;

AURORA         CLOUDY    52  43  71 S10       29.72R
6HR MIN TEMP:  48; 6HR MAX TEMP:  53; 6HR PCP:  0.01;

MCMINNVILLE    HVY RAIN  49  42  77 S5        29.72R VSB 1
6HR MIN TEMP:  48; 6HR MAX TEMP:  55; 6HR PCP:  0.70;

SALEM          CLOUDY    50  46  86 S10       29.70F
6HR MIN TEMP:  49; 6HR MAX TEMP:  54; 6HR PCP:  0.09;

CORVALLIS      CLOUDY    50  46  87 E8        29.71F
EUGENE         LGT RAIN  50  45  83 S12       29.72S
6HR MIN TEMP:  47; 6HR MAX TEMP:  52; 6HR PCP:  0.06;

$$

ORZ021-028-280100-
SOUTHWEST OREGON


CITY           SKY/WX    TMP DP  RH WIND       PRES   REMARKS
NORTH BEND     PTSUNNY   52  50  93 W10       29.77S
6HR MIN TEMP:  48; 6HR MAX TEMP:  54; 6HR PCP:  0.22;

BROOKINGS      LGT RAIN  48  48 100 NW6       29.81S FOG
ROSEBURG       LGT RAIN  50  41  71 SW7       29.75S
6HR MIN TEMP:  49; 6HR MAX TEMP:  52; 6HR PCP:  0.10;

SEXTON SUMMIT  FOG       37  37 100 VRB3      29.70S VSB 3/4
6HR MIN TEMP:  36; 6HR MAX TEMP:  39; 6HR PCP:  0.02;

MEDFORD        LGT RAIN  49  41  74 E3        29.73S
6HR MIN TEMP:  47; 6HR MAX TEMP:  53; 6HR PCP:  0.06;

$$

ORZ014>016-041-280100-
COLUMBIA GORGE


CITY           SKY/WX    TMP DP  RH WIND       PRES   REMARKS
TROUTDALE      CLOUDY    50  41  71 E15       29.72R
6HR MIN TEMP:  50; 6HR MAX TEMP:  55; 6HR PCP:  0.06;

THE DALLES     LGT RAIN  46  42  86 CALM      29.78R
6HR MIN TEMP:  46; 6HR MAX TEMP:  47; 6HR PCP:  0.16;

$$

ORZ029>031-041-044-049-050-061>064-502-503-505>511-280100-
EASTERN OREGON


CITY           SKY/WX    TMP DP  RH WIND       PRES   REMARKS
REDMOND        CLOUDY    42  35  76 NE12      29.65R
6HR MIN TEMP:  40; 6HR MAX TEMP:  50; 6HR PCP:  0.02;

BEND           PTSUNNY   39  36  87 S10       29.65S WCI  32
PRINEVILLE     LGT RAIN  41  36  81 CALM      29.66R
KLAMATH FALLS  PTSUNNY   41  29  62 W15       29.66S
6HR MIN TEMP:  40; 6HR MAX TEMP:  46; 6HR PCP:  0.01;

LAKEVIEW       CLOUDY    36  32  87 N7        29.65F WCI  30
HERMISTON      CLOUDY    47  42  83 SW10      29.71S
6HR MIN TEMP:  47; 6HR MAX TEMP:  50; 6HR PCP:  0.01;

PENDLETON      CLOUDY    46  39  76 W13       29.68S
6HR MIN TEMP:  45; 6HR MAX TEMP:  50; 6HR PCP:  0.01;

JOHN DAY       DRIZZLE   38  37  92 SW5       29.66S WCI  35
MEACHAM        CLOUDY    42  33  70 VRB3      29.64S
6HR MIN TEMP:  38; 6HR MAX TEMP:  42; 6HR PCP: TRACE;

LA GRANDE      CLOUDY    46  32  57 N6        29.64S
6HR MIN TEMP:  39; 6HR MAX TEMP:  48;

BAKER CITY     PTSUNNY   44  30  57 E8        29.64F
6HR MIN TEMP:  38; 6HR MAX TEMP:  45; 6HR PCP:  0.01;

BURNS          PTSUNNY   43  32  65 NW13      29.63S
6HR MIN TEMP:  32; 6HR MAX TEMP:  43;

ROME             N/A     40  34  79 NW6       29.61F
6HR MIN TEMP:  34; 6HR MAX TEMP:  40; 6HR PCP:  0.16;

ONTARIO        CLOUDY    53  31  42 VRB5      29.65F
6HR MIN TEMP:  43; 6HR MAX TEMP:  54;

$$



USA.gov is the U.S. government's official web portal to all federal, state and local government web resources and services.